Location: Unnamed
(52.8822°N, 118.0859°W)
Time: 12:43:23
(UTC-06:00)

ISS - Visible Passes

Search period start: 19 April 2025 00:00
Search period end: 29 April 2025 00:00
Orbit: 414 x 421 km, 51.6° (Epoch: 19 April)

Date Brightness Start Highest point End Pass type
(mag) Time Alt. Az. Time Alt. Az. Time Alt. Az.
20 Apr -0.9 05:51:46 10° SE 05:52:02 10° SE 05:52:19 10° SE visible
22 Apr -1.8 05:49:30 10° SSW 05:52:01 20° SSE 05:54:33 10° E visible
23 Apr -1.4 05:02:13 10° S 05:04:01 14° SE 05:05:54 10° ESE visible
24 Apr -2.7 05:48:57 10° SW 05:52:02 35° SSE 05:55:07 10° E visible
25 Apr -2.3 05:02:08 17° SSW 05:03:53 26° SSE 05:06:44 10° E visible
26 Apr -2.0 04:15:31 19° SSE 04:15:44 19° SE 04:18:13 10° E visible
26 Apr -3.4 05:48:45 10° WSW 05:52:02 55° SSE 05:55:19 10° E visible
27 Apr -1.2 03:28:51 12° ESE 03:28:51 12° ESE 03:29:23 10° ESE visible
27 Apr -3.2 05:01:44 19° SW 05:03:46 44° SSE 05:06:58 10° E visible
28 Apr -2.9 04:15:01 32° S 04:15:29 34° SSE 04:18:33 10° E visible
